Flag for France Weather past 2 weeks in Limoges, France

Now
66 °F

Cloudy.


Feels Like: 66 °F
Forecast: 61 / 74 °F
Wind: 3 mph from North

Location: Limoges Airport

Current Time: Aug 28, 2014 at 11:31:40 AM

Latest Report: Aug 28, 2014 at 11:00 AM


Visibility: N/A

Pressure: 30.07 "Hg

Humidity: 73%

Dew point: 57 °F

Location of LimogesLocation

Historic Weather in Limoges — Graph

°F

Limoges temperature yesterday

Maximum temperature yesterday: 72 °F (at 4:00 PM)
Minimum temperature yesterday: 57 °F (at 12:00 AM)
Average temperature yesterday: 64 °F

Past Weeks' High & Low Weather Summary

 TemperatureHumidityPressure
High73 °F (Aug 25, 4:00 PM)100% (Aug 14, 5:00 AM)30.27 "Hg (Aug 14, 5:00 AM)
Low48 °F (Aug 21, 6:30 AM)40% (Aug 24, 3:30 PM)29.80 "Hg (Aug 26, 6:30 AM)
Average60 °F73%30.06 "Hg
* Reported Aug 13 10:00 AM — Aug 28 10:30 AM, Limoges, Weather by CustomWeather, © 2014

Note: Actual official high and low records may vary slightly from our data, if they occured in-between our weather recording intervals... More about our weather records

Advertising

Limoges weather history for previous 24 hours

 ConditionsComfort  
Time TempWeatherWind HumidityBarometerVisibility
10:30 AM
Aug 28
64 °FMostly cloudy.No wind78%30.07 "HgN/A
10:00 AM64 °FMore clouds than sun.5 mph78%30.07 "HgN/A
9:30 AM63 °FOvercast.2 mph83%30.07 "HgN/A
9:00 AM61 °FMostly cloudy.2 mph83%30.07 "HgN/A
8:30 AM61 °FBroken clouds.2 mph83%30.07 "HgN/A
8:00 AM61 °FMostly cloudy.3 mph83%30.07 "HgN/A
7:30 AM61 °FMostly cloudy.2 mph83%30.07 "HgN/A
7:00 AM61 °FPassing clouds.3 mph83%30.04 "HgN/A
6:30 AM59 °FPassing clouds.3 mph88%30.04 "HgN/A
6:00 AM61 °FClear.2 mph88%30.04 "HgN/A
5:30 AM61 °FClear.1 mph88%30.04 "HgN/A
4:30 AM61 °FClear.2 mph88%30.04 "HgN/A
4:00 AM63 °FClear.No wind83%30.04 "HgN/A
3:30 AM63 °FOvercast.2 mph77%30.04 "HgN/A
3:00 AM63 °FMostly cloudy.2 mph83%30.07 "HgN/A
2:30 AM63 °FPartly cloudy.No wind77%30.07 "HgN/A
2:00 AM63 °FClear.1 mph83%30.04 "HgN/A
1:30 AM63 °FPassing clouds.No wind83%30.07 "HgN/A
1:00 AM64 °FOvercast.2 mph78%30.07 "HgN/A
12:30 AM64 °FOvercast.1 mph78%30.07 "HgN/A
12:00 AM64 °FMostly cloudy.2 mph78%30.07 "HgN/A
11:30 PM
Aug 27
66 °FMostly cloudy.2 mph73%30.07 "HgN/A
11:00 PM66 °FOvercast.2 mph68%30.07 "HgN/A
10:30 PM66 °FOvercast.3 mph68%30.07 "HgN/A
10:00 PM66 °FMostly cloudy.No wind68%30.07 "HgN/A
9:30 PM66 °FPartly sunny.2 mph68%30.07 "HgN/A
9:00 PM66 °FMostly cloudy.3 mph68%30.04 "HgN/A
8:30 PM66 °FOvercast.3 mph68%30.04 "HgN/A
8:00 PM68 °FClear.5 mph64%30.04 "HgN/A
7:30 PM70 °FClear.10 mph60%30.01 "HgN/A
7:00 PM70 °FClear.8 mph60%30.04 "HgN/A
6:30 PM70 °FScattered clouds.7 mph60%30.04 "HgN/A
6:00 PM70 °FOvercast.7 mph60%30.04 "HgN/A
4:30 PM72 °FPartly sunny.7 mph57%30.04 "HgN/A
4:00 PM72 °FPartly sunny.7 mph57%30.04 "HgN/A
3:30 PM70 °FScattered clouds.7 mph57%30.07 "HgN/A
3:00 PM68 °FPartly sunny.7 mph60%30.04 "HgN/A
2:30 PM68 °FPartly sunny.7 mph60%30.04 "HgN/A
2:00 PM68 °FBroken clouds.7 mph60%30.04 "HgN/A
1:30 PM68 °FBroken clouds.6 mph60%30.04 "HgN/A
1:00 PM66 °FMostly cloudy.7 mph60%30.07 "HgN/A
12:30 PM66 °FOvercast.8 mph56%30.04 "HgN/A
12:00 PM66 °FPartly sunny.8 mph56%30.07 "HgN/A
11:30 AM66 °FScattered clouds.8 mph68%30.04 "HgN/A
11:00 AM64 °FBroken clouds.3 mph68%30.04 "HgN/A
Weather by CustomWeather, © 2014

See weather overviewHow to use our weather pages